Year,Month,Day,Hour,Minute,Value (Times are PST for temperature in C)
2016,03,31,00,00,6.90
2016,03,31,00,01,6.90
2016,03,31,00,02,6.90
2016,03,31,00,03,6.90
2016,03,31,00,04,6.90
2016,03,31,00,05,6.90
2016,03,31,00,06,6.90
2016,03,31,00,07,6.90
2016,03,31,00,08,6.90
2016,03,31,00,09,6.80
2016,03,31,00,10,6.80
2016,03,31,00,11,6.80
2016,03,31,00,12,6.80
2016,03,31,00,13,6.80
2016,03,31,00,14,6.80
2016,03,31,00,15,6.80
2016,03,31,00,16,6.80
2016,03,31,00,17,6.80
2016,03,31,00,18,6.70
2016,03,31,00,19,6.70
2016,03,31,00,20,6.70
2016,03,31,00,21,6.70
2016,03,31,00,22,6.70
2016,03,31,00,23,6.70
2016,03,31,00,24,6.70
2016,03,31,00,25,6.70
2016,03,31,00,26,6.70
2016,03,31,00,27,6.70
2016,03,31,00,28,6.70
2016,03,31,00,29,6.70
2016,03,31,00,30,6.70
2016,03,31,00,31,6.70
2016,03,31,00,32,6.70
2016,03,31,00,33,6.70
2016,03,31,00,34,6.70
2016,03,31,00,35,6.70
2016,03,31,00,36,6.60
2016,03,31,00,37,6.60
2016,03,31,00,38,6.60
2016,03,31,00,39,6.60
2016,03,31,00,40,6.60
2016,03,31,00,41,6.60
2016,03,31,00,42,6.60
2016,03,31,00,43,6.60
2016,03,31,00,44,6.60
2016,03,31,00,45,6.60
2016,03,31,00,46,6.50
2016,03,31,00,47,6.50
2016,03,31,00,48,6.50
2016,03,31,00,49,6.50
2016,03,31,00,50,6.50
2016,03,31,00,51,6.50
2016,03,31,00,52,6.50
2016,03,31,00,53,6.50
2016,03,31,00,54,6.50
2016,03,31,00,55,6.50
2016,03,31,00,56,6.50
2016,03,31,00,57,6.50
2016,03,31,00,58,6.50
2016,03,31,00,59,6.50
2016,03,31,01,00,6.50
2016,03,31,01,01,6.50
2016,03,31,01,02,6.40
2016,03,31,01,03,6.40
2016,03,31,01,04,6.40
2016,03,31,01,05,6.40
2016,03,31,01,06,6.40
2016,03,31,01,07,6.40
2016,03,31,01,08,6.40
2016,03,31,01,09,6.40
2016,03,31,01,10,6.40
2016,03,31,01,11,6.40
2016,03,31,01,12,6.40
2016,03,31,01,13,6.40
2016,03,31,01,14,6.40
2016,03,31,01,15,6.40
2016,03,31,01,16,6.40
2016,03,31,01,17,6.40
2016,03,31,01,18,6.40
2016,03,31,01,19,6.40
2016,03,31,01,20,6.40
2016,03,31,01,21,6.40
2016,03,31,01,22,6.30
2016,03,31,01,23,6.30
2016,03,31,01,24,6.30
2016,03,31,01,25,6.30
2016,03,31,01,26,6.30
2016,03,31,01,27,6.30
2016,03,31,01,28,6.30
2016,03,31,01,29,6.30
2016,03,31,01,30,6.30
2016,03,31,01,31,6.30
2016,03,31,01,32,6.30
2016,03,31,01,33,6.30
2016,03,31,01,34,6.30
2016,03,31,01,35,6.30
2016,03,31,01,36,6.30
2016,03,31,01,37,6.20
2016,03,31,01,38,6.20
2016,03,31,01,39,6.20
2016,03,31,01,40,6.20
2016,03,31,01,41,6.20
2016,03,31,01,42,6.20
2016,03,31,01,43,6.20
2016,03,31,01,44,6.20
2016,03,31,01,49,6.20
2016,03,31,01,50,6.20
2016,03,31,01,51,6.20
2016,03,31,01,52,6.10
2016,03,31,01,53,6.10
2016,03,31,01,54,6.10
2016,03,31,01,55,6.10
2016,03,31,01,56,6.10
2016,03,31,01,57,6.10
2016,03,31,01,58,6.10
2016,03,31,01,59,6.10
2016,03,31,02,00,6.10
2016,03,31,02,01,6.10
2016,03,31,02,02,6.10
2016,03,31,02,03,6.10
2016,03,31,02,04,6.10
2016,03,31,02,05,6.10
2016,03,31,02,06,6.00
2016,03,31,02,07,6.00
2016,03,31,02,08,6.00
2016,03,31,02,09,6.00
2016,03,31,02,10,6.00
2016,03,31,02,11,6.00
2016,03,31,02,12,6.00
2016,03,31,02,13,6.00
2016,03,31,02,14,6.00
2016,03,31,02,15,6.00
2016,03,31,02,16,6.00
2016,03,31,02,17,6.00
2016,03,31,02,18,6.00
2016,03,31,02,19,6.00
2016,03,31,02,20,6.00
2016,03,31,02,21,5.90
2016,03,31,02,22,5.90
2016,03,31,02,23,5.90
2016,03,31,02,24,5.90
2016,03,31,02,25,5.90
2016,03,31,02,26,5.90
2016,03,31,02,27,5.90
2016,03,31,02,28,5.90
2016,03,31,02,29,5.90
2016,03,31,02,30,5.90
2016,03,31,02,31,5.90
2016,03,31,02,32,5.90
2016,03,31,02,33,5.90
2016,03,31,02,34,5.90
2016,03,31,02,35,5.90
2016,03,31,02,36,5.90
2016,03,31,02,37,5.90
2016,03,31,02,38,5.90
2016,03,31,02,39,5.90
2016,03,31,02,40,5.90
2016,03,31,02,41,5.90
2016,03,31,02,42,5.80
2016,03,31,02,43,5.80
2016,03,31,02,44,5.80
2016,03,31,02,45,5.80
2016,03,31,02,46,5.80
2016,03,31,02,47,5.80
2016,03,31,02,48,5.80
2016,03,31,02,49,5.80
2016,03,31,02,50,5.80
2016,03,31,02,51,5.80
2016,03,31,02,52,5.80
2016,03,31,02,53,5.80
2016,03,31,02,54,5.80
2016,03,31,02,55,5.80
2016,03,31,02,56,5.80
2016,03,31,02,57,5.70
2016,03,31,02,58,5.70
2016,03,31,02,59,5.70
2016,03,31,03,00,5.70
2016,03,31,03,01,5.70
2016,03,31,03,02,5.70
2016,03,31,03,03,5.70
2016,03,31,03,04,5.70
2016,03,31,03,05,5.60
2016,03,31,03,06,5.60
2016,03,31,03,07,5.60
2016,03,31,03,08,5.60
2016,03,31,03,09,5.60
2016,03,31,03,10,5.60
2016,03,31,03,11,5.60
2016,03,31,03,12,5.60
2016,03,31,03,13,5.60
2016,03,31,03,14,5.60
2016,03,31,03,15,5.60
2016,03,31,03,16,5.60
2016,03,31,03,17,5.60
2016,03,31,03,18,5.60
2016,03,31,03,19,5.60
2016,03,31,03,20,5.50
2016,03,31,03,21,5.60
2016,03,31,03,22,5.50
2016,03,31,03,23,5.50
2016,03,31,03,24,5.50
2016,03,31,03,25,5.50
2016,03,31,03,26,5.50
2016,03,31,03,27,5.50
2016,03,31,03,28,5.50
2016,03,31,03,29,5.50
2016,03,31,03,30,5.50
2016,03,31,03,31,5.50
2016,03,31,03,32,5.50
2016,03,31,03,33,5.50
2016,03,31,03,34,5.50
2016,03,31,03,35,5.50
2016,03,31,03,36,5.50
2016,03,31,03,37,5.50
2016,03,31,03,38,5.50
2016,03,31,03,39,5.50
2016,03,31,03,40,5.50
2016,03,31,03,41,5.50
2016,03,31,03,42,5.50
2016,03,31,03,43,5.50
2016,03,31,03,44,5.50
2016,03,31,03,45,5.50
2016,03,31,03,46,5.50
2016,03,31,03,47,5.40
2016,03,31,03,48,5.40
2016,03,31,03,49,5.40
2016,03,31,03,50,5.40
2016,03,31,03,51,5.40
2016,03,31,03,52,5.40
2016,03,31,03,53,5.40
2016,03,31,03,54,5.40
2016,03,31,03,55,5.40
2016,03,31,03,56,5.40
2016,03,31,03,57,5.40
2016,03,31,03,58,5.40
2016,03,31,03,59,5.40
2016,03,31,04,00,5.40
2016,03,31,04,01,5.40
2016,03,31,04,02,5.40
2016,03,31,04,03,5.40
2016,03,31,04,04,5.40
2016,03,31,04,05,5.40
2016,03,31,04,06,5.40
2016,03,31,04,07,5.40
2016,03,31,04,08,5.40
2016,03,31,04,09,5.40
2016,03,31,04,10,5.40
2016,03,31,04,11,5.40
2016,03,31,04,12,5.40
2016,03,31,04,13,5.40
2016,03,31,04,14,5.40
2016,03,31,04,15,5.40
2016,03,31,04,16,5.40
2016,03,31,04,17,5.40
2016,03,31,04,18,5.40
2016,03,31,04,19,5.40
2016,03,31,04,20,5.40
2016,03,31,04,21,5.40
2016,03,31,04,22,5.40
2016,03,31,04,23,5.40
2016,03,31,04,24,5.40
2016,03,31,04,25,5.40
2016,03,31,04,26,5.40
2016,03,31,04,27,5.30
2016,03,31,04,28,5.30
2016,03,31,04,29,5.30
2016,03,31,04,30,5.30
2016,03,31,04,31,5.30
2016,03,31,04,32,5.30
2016,03,31,04,33,5.30
2016,03,31,04,34,5.30
2016,03,31,04,35,5.30
2016,03,31,04,36,5.30
2016,03,31,04,37,5.30
2016,03,31,04,38,5.30
2016,03,31,04,39,5.30
2016,03,31,04,40,5.30
2016,03,31,04,41,5.30
2016,03,31,04,42,5.30
2016,03,31,04,43,5.30
2016,03,31,04,44,5.30
2016,03,31,04,45,5.30
2016,03,31,04,46,5.30
2016,03,31,04,47,5.30
2016,03,31,04,48,5.20
2016,03,31,04,49,5.20
2016,03,31,04,50,5.20
2016,03,31,04,51,5.20
2016,03,31,04,52,5.30
2016,03,31,04,53,5.30
2016,03,31,04,54,5.30
2016,03,31,04,55,5.30
2016,03,31,04,56,5.30
2016,03,31,04,57,5.30
2016,03,31,04,58,5.30
2016,03,31,04,59,5.30
2016,03,31,05,00,5.30
2016,03,31,05,01,5.30
2016,03,31,05,02,5.30
2016,03,31,05,03,5.30
2016,03,31,05,04,5.30
2016,03,31,05,05,5.30
2016,03,31,05,06,5.30
2016,03,31,05,07,5.20
2016,03,31,05,08,5.20
2016,03,31,05,09,5.20
2016,03,31,05,10,5.20
2016,03,31,05,11,5.20
2016,03,31,05,12,5.20
2016,03,31,05,13,5.20
2016,03,31,05,14,5.20
2016,03,31,05,15,5.20
2016,03,31,05,16,5.20
2016,03,31,05,17,5.20
2016,03,31,05,18,5.20
2016,03,31,05,19,5.20
2016,03,31,05,20,5.20
2016,03,31,05,21,5.20
2016,03,31,05,22,5.20
2016,03,31,05,23,5.20
2016,03,31,05,24,5.20
2016,03,31,05,25,5.20
2016,03,31,05,26,5.20
2016,03,31,05,27,5.20
2016,03,31,05,28,5.20
2016,03,31,05,29,5.20
2016,03,31,05,30,5.20
2016,03,31,05,31,5.20
2016,03,31,05,32,5.20
2016,03,31,05,33,5.20
2016,03,31,05,34,5.20
2016,03,31,05,35,5.20
2016,03,31,05,36,5.20
2016,03,31,05,37,5.10
2016,03,31,05,38,5.10
2016,03,31,05,39,5.10
2016,03,31,05,40,5.10
2016,03,31,05,41,5.10
2016,03,31,05,42,5.10
2016,03,31,05,43,5.10
2016,03,31,05,44,5.10
2016,03,31,05,45,5.10
2016,03,31,05,46,5.10
2016,03,31,05,47,5.10
2016,03,31,05,48,5.10
2016,03,31,05,49,5.10
2016,03,31,05,50,5.10
2016,03,31,05,51,5.10
2016,03,31,05,52,5.10
2016,03,31,05,53,5.00
2016,03,31,05,54,5.10
2016,03,31,05,55,5.10
2016,03,31,05,56,5.10
2016,03,31,05,57,5.10
2016,03,31,05,58,5.00
2016,03,31,05,59,5.00
2016,03,31,06,00,5.00
2016,03,31,06,01,5.00
2016,03,31,06,02,5.00
2016,03,31,06,03,5.00
2016,03,31,06,04,5.00
2016,03,31,06,05,5.00
2016,03,31,06,06,5.00
2016,03,31,06,07,5.00
2016,03,31,06,08,5.00
2016,03,31,06,09,5.00
2016,03,31,06,10,5.00
2016,03,31,06,11,4.90
2016,03,31,06,12,4.90
2016,03,31,06,13,4.90
2016,03,31,06,14,4.90
2016,03,31,06,15,4.90
2016,03,31,06,16,4.90
2016,03,31,06,17,4.90
2016,03,31,06,18,4.90
2016,03,31,06,19,4.90
2016,03,31,06,20,4.90
2016,03,31,06,21,4.90
2016,03,31,06,22,4.90
2016,03,31,06,23,4.90
2016,03,31,06,24,4.90
2016,03,31,06,25,4.90
2016,03,31,06,26,4.90
2016,03,31,06,27,4.90
2016,03,31,06,28,4.90
2016,03,31,06,29,4.90
2016,03,31,06,30,4.90
2016,03,31,06,31,4.90
2016,03,31,06,32,4.90
2016,03,31,06,33,4.90
2016,03,31,06,34,4.90
2016,03,31,06,35,4.90
2016,03,31,06,36,4.90
2016,03,31,06,37,4.90
2016,03,31,06,38,4.90
2016,03,31,06,39,4.90
2016,03,31,06,40,4.90
2016,03,31,06,41,4.90
2016,03,31,06,42,4.80
2016,03,31,06,43,4.80
2016,03,31,06,44,4.80
2016,03,31,06,45,4.80
2016,03,31,06,46,4.80
2016,03,31,06,47,4.80
2016,03,31,06,48,4.80
2016,03,31,06,49,4.80
2016,03,31,06,50,4.80
2016,03,31,06,51,4.80
2016,03,31,06,52,4.80
2016,03,31,06,53,4.80
2016,03,31,06,54,4.80
2016,03,31,06,55,4.80
2016,03,31,06,56,4.90
2016,03,31,06,57,4.90
2016,03,31,06,58,4.90
2016,03,31,06,59,4.90
2016,03,31,07,00,4.90
2016,03,31,07,01,4.90
2016,03,31,07,02,4.90
2016,03,31,07,03,4.90
2016,03,31,07,04,4.90
2016,03,31,07,05,4.90
2016,03,31,07,06,4.90
2016,03,31,07,07,4.90
2016,03,31,07,08,4.90
2016,03,31,07,09,4.90
2016,03,31,07,10,4.90
2016,03,31,07,11,4.90
2016,03,31,07,12,4.90
2016,03,31,07,13,4.90
2016,03,31,07,14,5.00
2016,03,31,07,15,5.00
2016,03,31,07,16,5.00
2016,03,31,07,17,5.00
2016,03,31,07,18,5.00
2016,03,31,07,19,5.00
2016,03,31,07,20,5.10
2016,03,31,07,21,5.10
2016,03,31,07,22,5.10
2016,03,31,07,23,5.10
2016,03,31,07,24,5.10
2016,03,31,07,25,5.10
2016,03,31,07,26,5.10
2016,03,31,07,27,5.10
2016,03,31,07,28,5.10
2016,03,31,07,29,5.10
2016,03,31,07,30,5.10
2016,03,31,07,31,5.10
2016,03,31,07,32,5.10
2016,03,31,07,33,5.10
2016,03,31,07,34,5.10
2016,03,31,07,35,5.10
2016,03,31,07,36,5.10
2016,03,31,07,37,5.10
2016,03,31,07,38,5.10
2016,03,31,07,39,5.10
2016,03,31,07,40,5.10
2016,03,31,07,41,5.10
2016,03,31,07,42,5.10
2016,03,31,07,43,5.10
2016,03,31,07,44,5.10
2016,03,31,07,45,5.10
2016,03,31,07,46,5.10
2016,03,31,07,47,5.10
2016,03,31,07,48,5.10
2016,03,31,07,49,5.10
2016,03,31,07,50,5.20
2016,03,31,07,51,5.20
2016,03,31,07,52,5.20
2016,03,31,07,53,5.20
2016,03,31,07,54,5.20
2016,03,31,07,55,5.20
2016,03,31,07,56,5.20
2016,03,31,07,57,5.20
2016,03,31,07,58,5.20
2016,03,31,07,59,5.20
2016,03,31,08,00,5.20
2016,03,31,08,01,5.20
2016,03,31,08,02,5.20
2016,03,31,08,03,5.20
2016,03,31,08,04,5.20
2016,03,31,08,05,5.20
2016,03,31,08,06,5.20
2016,03,31,08,07,5.30
2016,03,31,08,08,5.30
2016,03,31,08,09,5.30
2016,03,31,08,10,5.30
2016,03,31,08,11,5.30
2016,03,31,08,12,5.30
2016,03,31,08,13,5.30
2016,03,31,08,14,5.30
2016,03,31,08,15,5.40
2016,03,31,08,16,5.40
2016,03,31,08,17,5.40
2016,03,31,08,18,5.40
2016,03,31,08,19,5.40
2016,03,31,08,20,5.40
2016,03,31,08,21,5.40
2016,03,31,08,22,5.50
2016,03,31,08,23,5.50
2016,03,31,08,24,5.50
2016,03,31,08,25,5.50
2016,03,31,08,26,5.50
2016,03,31,08,27,5.60
2016,03,31,08,28,5.60
2016,03,31,08,29,5.60
2016,03,31,08,30,5.60
2016,03,31,08,31,5.60
2016,03,31,08,32,5.70
2016,03,31,08,33,5.70
2016,03,31,08,34,5.70
2016,03,31,08,35,5.70
2016,03,31,08,36,5.70
2016,03,31,08,37,5.70
2016,03,31,08,38,5.70
2016,03,31,08,39,5.70
2016,03,31,08,40,5.80
2016,03,31,08,41,5.80
2016,03,31,08,42,5.80
2016,03,31,08,43,5.80
2016,03,31,08,44,5.80
2016,03,31,08,45,5.80
2016,03,31,08,46,5.90
2016,03,31,08,47,5.90
2016,03,31,08,48,5.90
2016,03,31,08,49,5.90
2016,03,31,08,50,5.90
2016,03,31,08,51,5.90
2016,03,31,08,52,6.00
2016,03,31,08,53,6.00
2016,03,31,08,54,6.00
2016,03,31,08,55,6.10
2016,03,31,08,56,6.10
2016,03,31,08,57,6.10
2016,03,31,08,58,6.10
2016,03,31,08,59,6.20
2016,03,31,09,00,6.20
2016,03,31,09,01,6.30
2016,03,31,09,02,6.40
2016,03,31,09,03,6.50
2016,03,31,09,04,6.60
2016,03,31,09,05,6.60
2016,03,31,09,06,6.70
2016,03,31,09,07,6.70
2016,03,31,09,08,6.80
2016,03,31,09,09,6.80
2016,03,31,09,10,6.80
2016,03,31,09,11,6.90
2016,03,31,09,12,6.90
2016,03,31,09,13,7.00
2016,03,31,09,14,7.00
2016,03,31,09,15,7.10
2016,03,31,09,16,7.10
2016,03,31,09,17,7.10
2016,03,31,09,18,7.10
2016,03,31,09,19,7.20
2016,03,31,09,20,7.20
2016,03,31,09,21,7.30
2016,03,31,09,22,7.30
2016,03,31,09,23,7.40
2016,03,31,09,24,7.40
2016,03,31,09,25,7.50
2016,03,31,09,26,7.60
2016,03,31,09,27,7.60
2016,03,31,09,28,7.70
2016,03,31,09,29,7.70
2016,03,31,09,30,7.80
2016,03,31,09,31,7.90
2016,03,31,09,32,8.00
2016,03,31,09,33,8.00
2016,03,31,09,34,8.10
2016,03,31,09,35,8.10
2016,03,31,09,36,8.20
2016,03,31,09,37,8.20
2016,03,31,09,38,8.20
2016,03,31,09,39,8.30
2016,03,31,09,40,8.30
2016,03,31,09,41,8.40
2016,03,31,09,42,8.40
2016,03,31,09,43,8.40
2016,03,31,09,44,8.50
2016,03,31,09,45,8.50
2016,03,31,09,46,8.60
2016,03,31,09,47,8.60
2016,03,31,09,48,8.70
2016,03,31,09,49,8.80
2016,03,31,09,50,8.90
2016,03,31,09,51,8.90
2016,03,31,09,52,9.00
2016,03,31,09,53,9.00
2016,03,31,09,54,9.10
2016,03,31,09,55,9.10
2016,03,31,09,56,9.20
2016,03,31,09,57,9.30
2016,03,31,09,58,9.30
2016,03,31,09,59,9.40
2016,03,31,10,00,9.50
2016,03,31,10,01,9.60
2016,03,31,10,02,9.60
2016,03,31,10,03,9.70
2016,03,31,10,04,9.70
2016,03,31,10,05,9.80
2016,03,31,10,06,9.80
2016,03,31,10,07,9.90
2016,03,31,10,08,10.00
2016,03,31,10,09,10.10
2016,03,31,10,10,10.30
2016,03,31,10,11,10.40
2016,03,31,10,12,10.50
2016,03,31,10,13,10.60
2016,03,31,10,14,10.70
2016,03,31,10,15,10.70
2016,03,31,10,16,10.80
2016,03,31,10,17,10.80
2016,03,31,10,18,10.80
2016,03,31,10,19,10.90
2016,03,31,10,20,11.00
2016,03,31,10,21,11.00
2016,03,31,10,22,11.10
2016,03,31,10,23,11.20
2016,03,31,10,24,11.20
2016,03,31,10,25,11.30
2016,03,31,10,26,11.30
2016,03,31,10,27,11.20
2016,03,31,10,28,11.20
2016,03,31,10,29,11.20
2016,03,31,10,30,11.20
2016,03,31,10,31,11.20
2016,03,31,10,32,11.20
2016,03,31,10,33,11.20
2016,03,31,10,34,11.20
2016,03,31,10,35,11.30
2016,03,31,10,36,11.30
2016,03,31,10,37,11.30
2016,03,31,10,38,11.30
2016,03,31,10,39,11.30
2016,03,31,10,40,11.40
2016,03,31,10,41,11.40
2016,03,31,10,42,11.50
2016,03,31,10,43,11.60
2016,03,31,10,44,11.60
2016,03,31,10,45,11.70
2016,03,31,10,46,11.80
2016,03,31,10,47,11.90
2016,03,31,10,48,12.10
2016,03,31,10,49,12.20
2016,03,31,10,50,12.30
2016,03,31,10,51,12.50
2016,03,31,10,52,12.60
2016,03,31,10,53,12.80
2016,03,31,10,54,13.00
2016,03,31,10,55,13.10
2016,03,31,10,56,13.20
2016,03,31,10,57,13.30
2016,03,31,10,58,13.50
2016,03,31,10,59,13.50
2016,03,31,11,00,13.60
2016,03,31,11,01,13.70
2016,03,31,11,02,13.80
2016,03,31,11,03,13.90
2016,03,31,11,04,14.00
2016,03,31,11,05,14.10
2016,03,31,11,06,14.20
2016,03,31,11,07,14.30
2016,03,31,11,08,14.40
2016,03,31,11,09,14.40
2016,03,31,11,10,14.50
2016,03,31,11,11,14.50
2016,03,31,11,12,14.60
2016,03,31,11,13,14.60
2016,03,31,11,14,14.70
2016,03,31,11,15,14.80
2016,03,31,11,16,14.90
2016,03,31,11,17,15.00
2016,03,31,11,18,15.00
2016,03,31,11,19,15.00
2016,03,31,11,20,15.00
2016,03,31,11,21,15.00
2016,03,31,11,22,15.00
2016,03,31,11,23,15.00
2016,03,31,11,24,15.00
2016,03,31,11,25,15.00
2016,03,31,11,26,15.00
2016,03,31,11,27,15.00
2016,03,31,11,28,15.00
2016,03,31,11,29,15.00
2016,03,31,11,30,15.00
2016,03,31,11,31,15.00
2016,03,31,11,32,15.00
2016,03,31,11,33,15.00
2016,03,31,11,34,15.00
2016,03,31,11,35,15.00
2016,03,31,11,36,15.00
2016,03,31,11,37,15.00
2016,03,31,11,38,15.10
2016,03,31,11,39,15.20
2016,03,31,11,40,15.30
2016,03,31,11,41,15.30
2016,03,31,11,42,15.40
2016,03,31,11,43,15.50
2016,03,31,11,44,15.50
2016,03,31,11,45,15.60
2016,03,31,11,46,15.60
2016,03,31,11,47,15.70
2016,03,31,11,48,15.80
2016,03,31,11,49,15.80
2016,03,31,11,50,15.80
2016,03,31,11,51,15.80
2016,03,31,11,52,15.80
2016,03,31,11,53,15.80
2016,03,31,11,54,15.80
2016,03,31,11,55,15.80
2016,03,31,11,56,15.80
2016,03,31,11,57,15.80
2016,03,31,11,58,15.80
2016,03,31,11,59,15.80
2016,03,31,12,00,15.80
2016,03,31,12,01,15.70
2016,03,31,12,02,15.70
2016,03,31,12,03,15.70
2016,03,31,12,04,15.70
2016,03,31,12,05,15.70
2016,03,31,12,06,15.70
2016,03,31,12,07,15.70
2016,03,31,12,08,15.80
2016,03,31,12,09,15.80
2016,03,31,12,10,15.80
2016,03,31,12,11,15.90
2016,03,31,12,12,15.90
2016,03,31,12,13,15.90
2016,03,31,12,14,15.90
2016,03,31,12,15,15.90
2016,03,31,12,16,16.00
2016,03,31,12,17,16.00
2016,03,31,12,18,16.00
2016,03,31,12,19,16.00
2016,03,31,12,20,16.00
2016,03,31,12,21,16.00
2016,03,31,12,22,16.00
2016,03,31,12,23,15.90
2016,03,31,12,24,15.90
2016,03,31,12,25,16.00
2016,03,31,12,26,16.00
2016,03,31,12,27,16.00
2016,03,31,12,28,15.90
2016,03,31,12,29,15.90
2016,03,31,12,30,15.90
2016,03,31,12,31,15.90
2016,03,31,12,32,15.90
2016,03,31,12,33,15.90
2016,03,31,12,34,15.90
2016,03,31,12,35,15.90
2016,03,31,12,36,15.90
2016,03,31,12,37,15.90
2016,03,31,12,38,15.90
2016,03,31,12,39,15.90
2016,03,31,12,40,16.00
2016,03,31,12,41,16.00
2016,03,31,12,42,16.00
2016,03,31,12,43,15.90
2016,03,31,12,44,15.90
2016,03,31,12,45,16.00
2016,03,31,12,46,16.00
2016,03,31,12,47,16.10
2016,03,31,12,48,16.10
2016,03,31,12,49,16.10
2016,03,31,12,50,16.20
2016,03,31,12,51,16.20
2016,03,31,12,52,16.20
2016,03,31,12,53,16.20
2016,03,31,12,54,16.30
2016,03,31,12,55,16.30
2016,03,31,12,56,16.30
2016,03,31,12,57,16.30
2016,03,31,12,58,16.40
2016,03,31,12,59,16.40
2016,03,31,13,00,16.50
2016,03,31,13,01,16.50
2016,03,31,13,02,16.50
2016,03,31,13,03,16.50
2016,03,31,13,04,16.60
2016,03,31,13,05,16.70
2016,03,31,13,06,16.70
2016,03,31,13,07,16.70
2016,03,31,13,08,16.60
2016,03,31,13,09,16.60
2016,03,31,13,10,16.60
2016,03,31,13,11,16.50
2016,03,31,13,12,16.50
2016,03,31,13,13,16.50
2016,03,31,13,14,16.40
2016,03,31,13,15,16.40
2016,03,31,13,16,16.40
2016,03,31,13,17,16.40
2016,03,31,13,18,16.40
2016,03,31,13,19,16.50
2016,03,31,13,20,16.50
2016,03,31,13,21,16.50
2016,03,31,13,22,16.40
2016,03,31,13,23,16.50
2016,03,31,13,24,16.40
2016,03,31,13,25,16.40
2016,03,31,13,26,16.30
2016,03,31,13,27,16.30
2016,03,31,13,28,16.30
2016,03,31,13,29,16.30
2016,03,31,13,30,16.30
2016,03,31,13,31,16.30
2016,03,31,13,32,16.30
2016,03,31,13,33,16.40
2016,03,31,13,34,16.40
2016,03,31,13,35,16.40
2016,03,31,13,36,16.40
2016,03,31,13,37,16.40
2016,03,31,13,38,16.40
2016,03,31,13,39,16.40
2016,03,31,13,40,16.40
2016,03,31,13,41,16.40
2016,03,31,13,42,16.50
2016,03,31,13,43,16.50
2016,03,31,13,44,16.60
2016,03,31,13,45,16.60
2016,03,31,13,46,16.60
2016,03,31,13,47,16.60
2016,03,31,13,48,16.60
2016,03,31,13,49,16.50
2016,03,31,13,50,16.50
2016,03,31,13,51,16.50
2016,03,31,13,52,16.50
2016,03,31,13,53,16.40
2016,03,31,13,54,16.40
2016,03,31,13,55,16.40
2016,03,31,13,56,16.50
2016,03,31,13,57,16.40
2016,03,31,13,58,16.40
2016,03,31,13,59,16.40
2016,03,31,14,00,16.40
2016,03,31,14,01,16.30
2016,03,31,14,02,16.30
2016,03,31,14,03,16.30
2016,03,31,14,04,16.20
2016,03,31,14,05,16.10
2016,03,31,14,06,16.10
2016,03,31,14,07,16.00
2016,03,31,14,08,16.00
2016,03,31,14,09,16.00
2016,03,31,14,10,16.00
2016,03,31,14,11,16.00
2016,03,31,14,12,15.90
2016,03,31,14,13,15.90
2016,03,31,14,14,15.90
2016,03,31,14,15,15.90
2016,03,31,14,16,16.00
2016,03,31,14,17,16.00
2016,03,31,14,18,16.10
2016,03,31,14,19,16.20
2016,03,31,14,20,16.20
2016,03,31,14,21,16.30
2016,03,31,14,22,16.30
2016,03,31,14,23,16.40
2016,03,31,14,24,16.50
2016,03,31,14,25,16.60
2016,03,31,14,26,16.70
2016,03,31,14,27,16.80
2016,03,31,14,28,16.90
2016,03,31,14,29,17.00
2016,03,31,14,30,17.10
2016,03,31,14,31,17.10
2016,03,31,14,32,17.10
2016,03,31,14,33,17.20
2016,03,31,14,34,17.20
2016,03,31,14,35,17.20
2016,03,31,14,36,17.10
2016,03,31,14,37,17.10
2016,03,31,14,38,17.10
2016,03,31,14,39,17.10
2016,03,31,14,40,17.10
2016,03,31,14,41,17.10
2016,03,31,14,42,17.00
2016,03,31,14,43,16.90
2016,03,31,14,44,16.90
2016,03,31,14,45,16.90
2016,03,31,14,46,16.90
2016,03,31,14,47,16.80
2016,03,31,14,48,16.80
2016,03,31,14,49,16.80
2016,03,31,14,50,16.80
2016,03,31,14,51,16.80
2016,03,31,14,52,16.80
2016,03,31,14,53,16.80
2016,03,31,14,54,16.90
2016,03,31,14,55,16.90
2016,03,31,14,56,16.90
2016,03,31,14,57,16.90
2016,03,31,14,58,16.90
2016,03,31,14,59,16.90
2016,03,31,15,00,16.90
2016,03,31,15,01,16.90
2016,03,31,15,02,16.90
2016,03,31,15,03,16.90
2016,03,31,15,04,16.90
2016,03,31,15,05,16.90
2016,03,31,15,06,17.00
2016,03,31,15,07,17.10
2016,03,31,15,08,17.10
2016,03,31,15,09,17.20
2016,03,31,15,10,17.20
2016,03,31,15,11,17.30
2016,03,31,15,12,17.30
2016,03,31,15,13,17.30
2016,03,31,15,14,17.40
2016,03,31,15,15,17.40
2016,03,31,15,16,17.50
2016,03,31,15,17,17.60
2016,03,31,15,18,17.80
2016,03,31,15,19,17.80
2016,03,31,15,20,17.80
2016,03,31,15,21,17.80
2016,03,31,15,22,17.70
2016,03,31,15,23,17.70
2016,03,31,15,24,17.80
2016,03,31,15,25,17.80
2016,03,31,15,26,17.80
2016,03,31,15,27,17.70
2016,03,31,15,28,17.70
2016,03,31,15,29,17.70
2016,03,31,15,30,17.70
2016,03,31,15,31,17.70
2016,03,31,15,32,17.70
2016,03,31,15,33,17.70
2016,03,31,15,34,17.70
2016,03,31,15,35,17.70
2016,03,31,15,36,17.70
2016,03,31,15,37,17.70
2016,03,31,15,38,17.70
2016,03,31,15,39,17.80
2016,03,31,15,40,17.80
2016,03,31,15,41,17.90
2016,03,31,15,42,17.90
2016,03,31,15,43,17.90
2016,03,31,15,44,18.00
2016,03,31,15,45,18.10
2016,03,31,15,46,18.10
2016,03,31,15,47,17.90
2016,03,31,15,48,17.90
2016,03,31,15,49,17.80
2016,03,31,15,50,17.80
2016,03,31,15,51,17.80
2016,03,31,15,52,17.70
2016,03,31,15,53,17.70
2016,03,31,15,54,17.70
2016,03,31,15,55,17.80
2016,03,31,15,56,17.80
2016,03,31,15,57,17.80
2016,03,31,15,58,17.90
2016,03,31,15,59,18.00
2016,03,31,16,00,18.10
2016,03,31,16,01,18.10
2016,03,31,16,02,18.10
2016,03,31,16,03,18.20
2016,03,31,16,04,18.20
2016,03,31,16,05,18.20
2016,03,31,16,06,18.20
2016,03,31,16,07,18.20
2016,03,31,16,08,18.20
2016,03,31,16,09,18.20
2016,03,31,16,10,18.20
2016,03,31,16,11,18.20
2016,03,31,16,12,18.20
2016,03,31,16,13,18.20
2016,03,31,16,14,18.20
2016,03,31,16,15,18.10
2016,03,31,16,16,18.10
2016,03,31,16,17,18.20
2016,03,31,16,18,18.20
2016,03,31,16,19,18.20
2016,03,31,16,20,18.20
2016,03,31,16,21,18.20
2016,03,31,16,22,18.20
2016,03,31,16,23,18.20
2016,03,31,16,24,18.20
2016,03,31,16,25,18.20
2016,03,31,16,26,18.20
2016,03,31,16,27,18.20
2016,03,31,16,28,18.30
2016,03,31,16,29,18.30
2016,03,31,16,30,18.30
2016,03,31,16,31,18.30
2016,03,31,16,32,18.30
2016,03,31,16,33,18.30
2016,03,31,16,34,18.30
2016,03,31,16,35,18.30
2016,03,31,16,36,18.30
2016,03,31,16,37,18.30
2016,03,31,16,38,18.30
2016,03,31,16,39,18.30
2016,03,31,16,40,18.30
2016,03,31,16,41,18.30
2016,03,31,16,42,18.30
2016,03,31,16,43,18.30
2016,03,31,16,44,18.30
2016,03,31,16,45,18.30
2016,03,31,16,46,18.20
2016,03,31,16,47,18.20
2016,03,31,16,48,18.20
2016,03,31,16,49,18.10
2016,03,31,16,50,18.10
2016,03,31,16,51,18.20
2016,03,31,16,52,18.20
2016,03,31,16,53,18.20
2016,03,31,16,54,18.20
2016,03,31,16,55,18.20
2016,03,31,16,56,18.20
2016,03,31,16,57,18.20
2016,03,31,16,58,18.20
2016,03,31,16,59,18.20
2016,03,31,17,00,18.20
2016,03,31,17,01,18.20
2016,03,31,17,02,18.20
2016,03,31,17,03,18.20
2016,03,31,17,04,18.20
2016,03,31,17,05,18.20
2016,03,31,17,06,18.20
2016,03,31,17,07,18.20
2016,03,31,17,08,18.10
2016,03,31,17,09,18.10
2016,03,31,17,10,18.00
2016,03,31,17,11,17.90
2016,03,31,17,12,17.80
2016,03,31,17,13,17.80
2016,03,31,17,14,17.70
2016,03,31,17,15,17.60
2016,03,31,17,16,17.60
2016,03,31,17,17,17.50
2016,03,31,17,18,17.40
2016,03,31,17,19,17.30
2016,03,31,17,20,17.20
2016,03,31,17,21,17.10
2016,03,31,17,22,16.90
2016,03,31,17,23,16.90
2016,03,31,17,24,16.80
2016,03,31,17,25,16.70
2016,03,31,17,26,16.70
2016,03,31,17,27,16.70
2016,03,31,17,28,16.70
2016,03,31,17,29,16.70
2016,03,31,17,30,16.70
2016,03,31,17,31,16.70
2016,03,31,17,32,16.80
2016,03,31,17,33,16.80
2016,03,31,17,34,16.90
2016,03,31,17,35,16.90
2016,03,31,17,36,16.90
2016,03,31,17,37,17.00
2016,03,31,17,38,17.00
2016,03,31,17,39,17.00
2016,03,31,17,40,17.00
2016,03,31,17,41,16.90
2016,03,31,17,42,16.90
2016,03,31,17,43,16.90
2016,03,31,17,44,16.90
2016,03,31,17,45,17.00
2016,03,31,17,46,17.00
2016,03,31,17,47,17.00
2016,03,31,17,48,17.00
2016,03,31,17,49,17.10